This is the latest recevied weather packets stored in our database for station/object K5FEP. If no packets are shown the sender has not sent any weather packets the latest 10 day(s).
| Time | Temp. | Humidity | Pressure | Rain* | Wind** | Luminosity | Snow |
|---|---|---|---|---|---|---|---|
| 1787954896 | 31.67° C | 46% | 1015.5 hPa | 0 mm | - | 67 W/m² | - |
| 1787954592 | 31.67° C | 45% | 1015.4 hPa | 0 mm | - | 84 W/m² | - |
| 1787954291 | 31.67° C | 45% | 1015.2 hPa | 0 mm | - | 101 W/m² | - |
| 1787953986 | 31.67° C | 45% | 1015.4 hPa | 0 mm | - | 113 W/m² | - |
| 1787953685 | 32.22° C | 45% | 1015.2 hPa | 0 mm | - | 111 W/m² | - |
| 1787953380 | 32.22° C | 43% | 1015.2 hPa | 0 mm | - | 113 W/m² | - |
| 1787953078 | 32.22° C | 44% | 1014.9 hPa | 0 mm | - | 92 W/m² | - |
| 1787952778 | 32.78° C | 42% | 1014.8 hPa | 0 mm | - | 105 W/m² | - |
| 1787952472 | 32.78° C | 44% | 1014.9 hPa | 0 mm | - | 247 W/m² | - |
| 1787952169 | 32.78° C | 44% | 1014.8 hPa | 0 mm | - | 126 W/m² | - |
| 1787951867 | 32.78° C | 43% | 1014.9 hPa | 0 mm | - | 154 W/m² | - |
| 1787951563 | 32.78° C | 43% | 1014.9 hPa | 0 mm | - | 195 W/m² | - |
| 1787951259 | 32.78° C | 42% | 1014.8 hPa | 0 mm | - | 237 W/m² | - |
| 1787950954 | 32.78° C | 43% | 1015 hPa | 0 mm | - | 234 W/m² | - |
| 1787950650 | 33.33° C | 43% | 1014.8 hPa | 0 mm | - | 206 W/m² | - |
| 1787950346 | 33.33° C | 44% | 1014.8 hPa | 0 mm | - | 193 W/m² | - |
| 1787950042 | 32.78° C | 44% | 1014.8 hPa | 0 mm | - | 314 W/m² | - |
| 1787949738 | 33.33° C | 43% | 1014.7 hPa | 0 mm | - | 203 W/m² | - |
| 1787949437 | 33.33° C | 42% | 1014.6 hPa | 0 mm | - | 184 W/m² | - |
| 1787949132 | 33.33° C | 41% | 1014.7 hPa | 0 mm | - | 230 W/m² | - |
| 1787948829 | 33.89° C | 40% | 1015 hPa | 0 mm | - | 379 W/m² | - |
| 1787948528 | 34.44° C | 39% | 1014.7 hPa | 0 mm | - | 501 W/m² | - |
| 1787948223 | 33.89° C | 39% | 1014.5 hPa | 0 mm | - | 528 W/m² | - |
| 1787947921 | 33.89° C | 39% | 1014.7 hPa | 0 mm | - | 619 W/m² | - |
| 1787947618 | 33.89° C | 39% | 1014.6 hPa | 0 mm | - | 719 W/m² | - |
* Rain latest hour (hover to see other rain measurements)
** Current wind speed in m/s (hover to see current wind gust speed)